This is the latest recevied weather packets stored in our database for station/object WC4PEM-6. If no packets are shown the sender has not sent any weather packets the latest 1 day(s).
| Time | Temp. | Humidity | Pressure | Rain* | Wind** | Luminosity | Snow |
|---|---|---|---|---|---|---|---|
| 1778015495 | 29.44° C | 45% | 1013.6 hPa | 0 mm | 0.89 m/s, 57° | - | - |
| 1778015405 | 29.44° C | 45% | 1013.6 hPa | 0 mm | 0.89 m/s, 57° | - | - |
| 1778015211 | 30° C | 44% | 1013.6 hPa | 0 mm | 0.89 m/s, 93° | - | - |
| 1778015105 | 30° C | 44% | 1013.6 hPa | 0 mm | 0.89 m/s, 93° | - | - |
| 1778015015 | 29.44° C | 44% | 1013.5 hPa | 0 mm | 0.89 m/s, 178° | - | - |
| 1778014805 | 29.44° C | 44% | 1013.5 hPa | 0 mm | 0.89 m/s, 178° | - | - |
| 1778014696 | 30° C | 43% | 1013.6 hPa | 0 mm | 0.89 m/s, 93° | - | - |
| 1778014505 | 30° C | 43% | 1013.6 hPa | 0 mm | 0.89 m/s, 93° | - | - |
| 1778014359 | 30° C | 43% | 1013.7 hPa | 0 mm | 0.89 m/s, 111° | - | - |
| 1778014205 | 30° C | 43% | 1013.7 hPa | 0 mm | 0.89 m/s, 111° | - | - |
| 1778013963 | 30° C | 44% | 1013.6 hPa | 0 mm | 1.34 m/s, 34° | - | - |
| 1778013905 | 30° C | 44% | 1013.6 hPa | 0 mm | 1.34 m/s, 34° | - | - |
| 1778013605 | 30° C | 44% | 1013.7 hPa | 0 mm | 1.34 m/s, 158° | - | - |
| 1778013390 | 30° C | 45% | 1013.7 hPa | 0 mm | 0.89 m/s, 80° | - | - |
| 1778013305 | 30° C | 45% | 1013.7 hPa | 0 mm | 0.89 m/s, 80° | - | - |
| 1778013005 | 30° C | 44% | 1013.8 hPa | 0 mm | 1.34 m/s, 93° | - | - |
| 1778012759 | 30° C | 44% | 1013.7 hPa | 0 mm | 1.34 m/s, 90° | - | - |
| 1778012705 | 30° C | 44% | 1013.7 hPa | 0 mm | 1.34 m/s, 90° | - | - |
| 1778012405 | 30° C | 45% | 1014 hPa | 0 mm | 1.34 m/s, 86° | - | - |
| 1778012157 | 30° C | 44% | 1013.9 hPa | 0 mm | 1.79 m/s, 93° | - | - |
| 1778012105 | 30° C | 44% | 1013.9 hPa | 0 mm | 1.79 m/s, 93° | - | - |
| 1778011805 | 30° C | 46% | 1013.9 hPa | 0 mm | 2.68 m/s, 93° | - | - |
| 1778011505 | 30° C | 44% | 1013.8 hPa | 0 mm | 1.79 m/s, 150° | - | - |
| 1778011205 | 30.56° C | 45% | 1013.9 hPa | 0 mm | 1.34 m/s, 228° | - | - |
| 1778010953 | 30.56° C | 45% | 1014 hPa | 0 mm | 1.79 m/s, 309° | - | - |
* Rain latest hour (hover to see other rain measurements)
** Current wind speed in m/s (hover to see current wind gust speed)